Погода в Кизляре

Погода в Кизляре : погода сейчас, прогноз погоды и архив. Всё, что Вы хотите узнать о погоде в Кизляре!

Поиск расширенной информации на нашем сайте:

Другие новости

Новости СМИ2

Главная страница сайта

Новости сайта

02.10.2013

Напоминаем, что на нашем новом сайте вы можете получить высокодетализированные прогнозы погоды по пунктам России, СНГ и мира (включающие важные для авиации метеовеличины, такие как направление и скорость ветра, видимость, явления погоды, количество и форма облачности, нижняя и верхняя граница облачности), а также ознакомиться с разнообразными материалами по авиационной метеорологии и подборкой полезных ссылок на эту тему.

Сайт Метеоцентр.Азия посвящён разработке технологий оптимизации авиаметеорологического обслуживания, включая проектирование и перспективное создание нескольких автоматизированных авиаметеорологических систем:
- система выпуска высокодетальных прогностических карт явлений погоды для нижнего воздушного пространства по России и ближнему зарубежью;
- система верификации прогнозов TAF (выпускаемых синоптиками официальных АМСГ РФ и ближнего зарубежья) и AUTOTAF (выпускаемых сайтом Метеоцентр.Азия) - выявление ошибок, онлайн-сопоставление с фактической погодой METAR, автоматическое внесение коррективов в прогнозы при резком отклонении фактической погоды от прогноза, подсчёт оправдываемости прогнозов по элементам и в целом;
- система обработки, анализа и отображения авиаметеорологической информации для применения провайдерами метеорологической информации.


Погода в Кизляре - сегодня

Время (UTC), дата Ветер
(°,м/с) 
Видим.   Явления Облачность Т
(°С)
Тd
(°С)
f(%) Тe
(°С)
Pmin
(гПа)
dP
(гПа)
Po
(мм)
O2
(г/м3)
Тmin Tmax R s Состояние
почвы
18 22.05.17 130 (ЮВ) 10 км    4/0 средняя, верхняя 
[Ac trans|Ci fib]
+16.3 +8.5 60 +16  1009.7  0.2  758  287           
21 22.05.17 110 (В) 10 км    10/10 600 м 
[Sc]
+14.4 +9.5 72 +15  1009.1  -0.6  757  288           
00 23.05.17 070 (В) 10 км    10/10 600 м 
[Sc]
+14.1 +10.7 80 +17  1007.9  -1.2  756  288           
03 23.05.17 360 (С) 10 км    6/6 600 м средняя, верхняя 
[Sc|Ac trans|Ci fib]
+15.3 +11.4 78 +19  1009.3  1.4  757  287  +13        сухая 
06 23.05.17 080 (В) 10 км    9/9 600 м средняя 
[Sc|Ac trans]
+20.2 +13.3 65 +26  1010.4  1.1  758  282           
09 23.05.17 010 (С) 10 км    9/9 600 м средняя 
[Sc|Ac trans]
+21 +12.7 59 +26  1011.6  1.2  759  282           
12 23.05.17 360 (С) 10 км    10/10 600 м 
[Sc]
+20.5 +13.2 63 +26  1012.1  0.5  759  282           
15 23.05.17 040 (СВ) 10 км    10/10 600 м 
[Sc]
+18.9 +13.6 71 +26  1012.9  0.8  760  284    +21.7       
18 23.05.17 030 (СВ) 10 км    10/10 600 м 
[Sc]
+17.6 +14 79 +26  1014.4  1.5  761  285           
21 23.05.17 360 (С) 10 км    10/10 600 м 
[Sc]
+16.6 +13.3 81 +23  1014.6  1.5  761  287           
00 24.05.17 090 (В) 10 км    10/10 600 м 
[Sc]
+16.3 +13.8 85 +23  1014.4  -0.2  761  287           
03 24.05.17 050 (СВ) 10 км  {ливн. осадки}  10/10 600 м 
[Sc]
+15.8 +13.7 87 +22  1014.7  0.3  761  287  +15.3      влажная 
06 24.05.17 090 (В) 10 км  {ливн. осадки}  10/10 600 м 
[Sc]
+19 +12.9 68 +24  1014.6  0.1  761  284           
09 24.05.17 090 (В) 10 км    10/10 600 м 
[Sc]
+19.2 +12 63 +23  1014.4  -0.2  761  284           
12 24.05.17 060 (СВ) 7{11}  10 км    10/10 600 м 
[Sc]
+18.6 +11.8 65 +22  1014.7  0.2  761  285           
15 24.05.17 070 (В) 4{11}  10 км  {ливн. осадки}  10/10 600 м кучево-дожд. 
[Cb cap]
+14.8 +13.4 91 +21  1016.4  1.7  763  289    +20.3     
18 24.05.17 070 (В) 10 км  {ливн. осадки}  10/10 600 м 
[Sc]
+13.8 +12.5 92 +18  1018.1  1.7  764  291           
21 24.05.17 250 (З) 4000 м  дымка  10/10 600 м 
[Sc]
+12.7 +12 96 +17  1018.2  0.1  764  292           
00 25.05.17 270 (З) 4000 м  дымка  6/6 600 м средняя 
[Sc|Ac trans]
+11.3 +10.4 94 +12  1017.7  -0.5  764  294           
03 25.05.17 250 (З) 4000 м  дымка  10/10 600 м 
[Sc]
+12 +11.1 94 +14  1018.3  0.6  764  293  +11.1    0.3    влажная 
06 25.05.17 240 (ЮЗ) 10 км    8/8 600 м средняя 
[Sc|Ac trans]
+15.8 +11.5 76 +19  1018.2  764  289           
09 25.05.17 290 (З) 10 км    6/6 600 м средняя 
[Cu Sc|Ac trans]
+20.8 +8.2 44 +21  1017.4  -0.8  763  284           
12 25.05.17 260 (З) 10 км    8/8 600 м средняя 
[Sc|Ac trans]
+20.3 +8.1 45 +20  1017.1  -0.3  763  285           
15 25.05.17 260 (З) 10 км    8/8 600 м средняя 
[Sc|Ac trans]
+19.2 +8.3 49 +20  1017.4  0.3  763  286    +21.2       
18 25.05.17 260 (З) 10 км    6/6 600 м средняя 
[Sc|Ac trans]
+15.9 +9.3 65 +17  1018.4  764  289           
Время (UTC), дата Ветер
(°,м/с) 
Видим.   Явления Облачность Т
(°С)
Тd
(°С)
f(%) Тe
(°С)
Pmin
(гПа)
dP
(гПа)
Po
(мм)
O2
(г/м3)
Тmin Tmax R s Состояние
почвы

Для получения пояснительной информации подведите курсор к названию столбца.

ПОГОДА в Кизляре - архив

Всё, что Вы хотите узнать о погоде в Кизляре - удобно и подробно!

Выберите нужную дату (начиная с 1 января 2015* года) и нажмите кнопку "Найти".
Будут отображены архивные сводки погоды по пункту Кизляр, начиная с указанной даты.


Отображать данные в формате CSV (для использования в таблицах Excel)


Внимание! Наш архив погоды предназначен исключительно для личного некоммерческого использования в познавательных целях. Если Вам необходимы официальные справки о состоянии погоды (для производственных, юридических, коммерческих и т.п. целей), обращайтесь в органы Росгидромета.

*Примечание: данная дата относится к архиву по метеостанциям СССР (Россия, СНГ, Балтия).
Архив по метеостанциям Зарубежной Европы и Азии (кроме Китая) хранится 10 дней, по другим регионам земного шара (Китай, Африка, Америка, Австралия, Океания) - 1 день.

Кизляр - район местоположения метеостанции


Название, широта, долгота, высота метеостанции:
Кизляр 43.8°ш. 46.7°д. -5 м над ур. моря [Российская Федерация]

Дополнительная информация

В oтличие oт бoльшинства пoгoдных сайтoв мы публикуем пoдрoбную метеoинфoрмацию в детальнoм прoфессиoнальнoм фoрмате.

Характеристики температуры и влажнoсти вoздуха измеряются на высoте 2 м в тени вдали oт зданий и деревьев.
Скoрoсть ветра измеряется на высoте 10 м (на урoвне рoста челoвека скoрoсть ветра ниже в 1.5-2 раза). Если метеoстанция нахoдится в гoрoде или в лесу, тo скoрoсть ветра занижена на 2-4 м/с пo сравнению с oткрытым местoм. Скoрoсть ветра над акватoриями крупных рек и oзёр, а также на вершинах хoлмoв на 2-5 м/с выше, чем в oбычных услoвиях.
Атмoсфернoе давление в разных тoчках местнoсти мoжет значительнo oтличаться oт давления на метеoстанции, в зависимoсти oт услoвий рельефа (при пoдъёме на 10 м давление пoнижается примернo на 1 мм рт.ст.).